PROFILE

 METAR AND TAF INFORMATION
ADDS - METARS form results

(0552 UTC 21 September 2018)
http://aviationweather.gov/metar/data/
 
LIEE 210520Z 33009KT 9999 FEW060 21/19 Q1011
TAF LIEE 210500Z 2106/2206 32010KT 9999 SCT030 BECMG 2111/2113 15010KT TEMPO 2112/2116 4000 TSRA BECMG 2117/2119 34008KT 

 AIRPORT MAP

 RUNWAY INFORMATION
Runway 14 Runway length 9196 ft Runway width 148 ft
Runway elevation 9 ft Runway displaced threshold 0 ft Runway heading 138
Runway 32 Runway length 9196 ft Runway width 148 ft
Runway elevation 4 ft Runway displaced threshold 0 ft Runway heading 318

 AIRPORT FREQUENCIES
Type APP Name CAGLIARI A Frequency 118.75 MHZ
Type GND Name Elmas GND Frequency 125.425 MHZ
Type MISC Name SAR Frequency 123.1 MHZ
Type TWR Name TWR Frequency 120.6 MHZ

 AIRPORT NEAR NAVIGATION AIDS
Type VOR-DME Name Cagliari Frequency 113400 KHZ
Type NDB Name Cagliari Frequency 371 KHZ